{"data":{"norad_id":68212,"intl_designator":"2026-053F","name":"STARLINK-37117","alt_names":[],"object_type":"PAYLOAD","status":"ACTIVE","operator":null,"country":"US","launch_date":"2026-03-17","launch_site_code":"AFWTR","launch_vehicle":null,"mission":null,"orbit_class":"UNKNOWN","rcs_meters":null,"size_class":null,"mass_kg":null,"dimensions":null,"purposes":["comms"],"wikipedia_slug":null,"has_3d_model":false,"image_url":null,"decayed_at":null,"tle_current":{"epoch":"2026-09-19T02:04:34.703328Z","epoch_age_seconds":173784,"freshness":"STALE","line1":"1 68212U 26053F   26262.08651277  .00001844  00000+0  59448-4 0  9999","line2":"2 68212  97.2853 135.8368 0002049  89.9428 270.2050 15.33438975 29852","mean_motion":15.33438975,"eccentricity":0.0002049,"inclination_deg":97.2853,"raan_deg":135.8368,"arg_perigee_deg":89.9428,"mean_anomaly_deg":270.205,"bstar":5.9448e-5,"rev_number":2985,"period_min":93.906573621555,"perigee_km":464.15882695704,"apogee_km":466.96337443871,"semimajor_km":6843.6981006979,"source":"CELESTRAK","updated_at":"2026-09-20T09:00:43.833448Z"}}}